Location: Montreal
(45.5087°N, 73.5540°W)
Time: 04:13:20
(UTC-04:00)

N. Korean satellite - Visible Passes

Search period start: 18 September 2021 00:00
Search period end: 28 September 2021 00:00
Orbit: 448 x 499 km, 97.3° (Epoch: 17 September)

Date Brightness Start Highest point End Pass type
(mag) Time Alt. Az. Time Alt. Az. Time Alt. Az.
18 Sep 7.8 05:56:41 10° NNE 06:00:04 45° E 06:03:28 10° S visible
19 Sep 9.4 05:29:28 10° NE 05:32:13 21° E 05:34:58 10° SE visible
20 Sep 10.2 05:03:52 10° E 05:04:15 10° E 05:04:39 10° E visible
21 Sep 7.1 06:06:35 10° NNE 06:10:05 63° E 06:13:36 10° S visible
22 Sep 8.9 05:39:10 10° NE 05:42:15 28° E 05:45:21 10° SSE visible
23 Sep 9.8 05:12:27 10° ENE 05:14:18 14° E 05:16:10 10° ESE visible
25 Sep 8.3 05:48:53 10° NNE 05:52:13 37° E 05:55:34 10° SSE visible
26 Sep 9.7 05:21:48 10° NE 05:24:17 18° E 05:26:48 10° SE visible
